TIME,DELAY(SENSOR),PRES,T(CTD),SAL,OXYGEN,RAWTEMP,T(OPTODE),TCPHASE,TURBIDITY,TURBIDITY_GAIN,FLUOR,BETA,CDOM,ED411.5,ED443.8,ED489.6,PAR,COMP,TILT,TILTY(TILT),CHECK
1340642672,6467,263.4100036621094000,5.8832001686096190,34.8908004760742200,340.4960021972656000,624.8391113281250000,5.8645172119140625,32.6409912109375000,16,3,48,112,63,2147638322,2147393256,2147283532,2148317704,659,0,-4,10863
1340642733,6469,259.5100097656250000,5.8853001594543460,34.8879013061523440,340.5733947753906000,624.7714233398438000,5.8666992187500000,32.6369018554687500,16,3,48,111,62,2147637791,2147396685,2147280072,2148319094,271,1,-4,62864
1340642794,6467,255.4799957275390600,5.8906002044677730,34.8855018615722660,341.2420043945312500,624.5878295898438000,5.8726181983947750,32.6110000610351560,16,3,50,110,64,2147638294,2147394783,2147277658,2148316452,3588,0,-4,20691
1340642858,6469,251.1900024414062500,5.9089999198913570,34.8800010681152340,334.6507873535156000,624.0485839843750000,5.8899970054626465,32.8282699584960940,16,3,48,112,63,2147637554,2147396364,2147282349,2148319040,3231,0,-4,21723
1340642919,6468,247.1100006103515600,5.9049000740051270,34.8759002685546900,331.6817016601562500,624.0529785156250000,5.8898577690124510,32.9319190979003900,16,3,48,114,63,2147635597,2147397087,2147278555,2148319446,3074,0,-4,49232
1340642981,6468,243.0000000000000000,5.9025998115539550,34.8703994750976560,333.6581115722656000,624.2971191406250000,5.8819918632507320,32.8669700622558600,16,3,50,115,63,2147639675,2147393814,2147281169,2148317864,2673,0,-4,15545
1340643042,6469,238.9700012207031200,5.8956999778747560,34.8683013916015600,333.8846130371094000,624.4796142578125000,5.8761057853698730,32.8625297546386700,16,3,49,117,64,2147638134,2147396387,2147278362,2148320973,2427,0,-4,25228
1340643103,6467,235.0200042724609400,5.8880000114440920,34.8638992309570300,335.7952880859375000,624.6561279296875000,5.8704171180725100,32.7992897033691400,16,3,48,113,62,2147636342,2147394207,2147276699,2148320708,2267,1,-4,31473
1340643164,6468,231.1999969482422000,5.8972997665405270,34.8605003356933600,338.5357055664062500,624.3900146484375000,5.8789978027343750,32.6997604370117200,17,3,49,114,62,2147638797,2147398669,2147279546,2148319894,1751,2,-4,62313
1340643225,6469,227.4400024414062500,5.9077000617980960,34.8564987182617200,338.8536987304687500,624.0969238281250000,5.8884429931640625,32.6838188171386700,16,3,48,114,64,2147635844,2147394659,2147280561,2148317837,1476,0,-4,29826
1340643289,6467,223.5599975585937500,5.9128999710083010,34.8568000793457000,339.6990966796875000,623.9600219726562000,5.8928551673889160,32.6524581909179700,16,3,48,113,62,2147638431,2147396136,2147280813,2148322120,1237,0,-4,52777
1340643350,6469,219.8899993896484400,5.9196000099182130,34.8572998046875000,339.7788085937500000,623.7017822265625000,5.9011759757995605,32.6454505920410160,16,3,48,113,62,2147635496,2147393604,2147281558,2148318221,925,1,-4,57016
1340643414,6467,216.1699981689453000,5.9601998329162600,34.8605995178222660,338.2807006835937500,622.6046752929688000,5.9365248680114750,32.6775588989257800,16,3,48,113,64,2147637992,2147394010,2147283043,2148321192,432,2,-4,7521
1340643475,6467,212.7700042724609400,5.9517002105712890,34.8543014526367200,339.1606140136719000,622.5205078125000000,5.9392380714416500,32.6456985473632800,16,3,48,114,62,2147635313,2147395684,2147282358,2148319404,160,0,-4,65290
1340643539,6468,209.4799957275390600,5.9913997650146480,34.8563995361328100,338.5185852050781000,621.5715942382812000,5.9698028564453125,32.6511802673339840,16,3,48,113,63,2147635578,2147394595,2147279497,2148318774,144,0,-4,19189
1340643601,6468,206.5299987792968800,6.0000000000000000,34.8562011718750000,337.0140991210937500,621.2432250976562000,5.9803771972656250,32.6972084045410160,16,3,48,110,64,2147634482,2147394555,2147285645,2148319692,3512,0,-4,36362
1340643665,6467,203.6799926757812500,6.0068998336791990,34.8555984497070300,336.5154113769531000,620.9937744140625000,5.9884090423583980,32.7101211547851560,17,3,48,110,64,2147636493,2147393773,2147282852,2148318527,3179,1,-4,64907
1340643726,6469,201.2100067138672000,6.0142002105712890,34.8539009094238300,336.6619873046875000,620.7742919921875000,5.9954757690429690,32.7010498046875000,15,3,48,111,64,2147633169,2147392241,2147281978,2148322468,2900,1,-4,33441
1340643790,6467,198.8200073242187500,6.0041999816894530,34.8511009216308600,337.7399902343750000,621.1231079101562000,5.9842448234558105,32.6701011657714840,16,3,48,112,63,2147635848,2147390998,2147285014,2148318829,2743,0,-4,19252
1340643851,6468,196.7299957275390600,5.9760999679565430,34.8414993286132800,339.7453002929687500,621.7883300781250000,5.9628219604492190,32.6130104064941400,16,3,49,112,64,2147635387,2147394074,2147281997,2148318271,2639,1,-4,55675
1340643943,6468,193.0500030517578000,5.9963998794555660,34.8359985351562500,341.4059143066406000,621.1616210937500000,5.9830069541931150,32.5456199645996100,16,3,48,116,63,2147634719,2147393731,2147281563,2148318861,2251,0,-4,23964
1340644004,6469,189.8600006103515600,6.0199999809265140,34.8340988159179700,341.3024902343750000,620.6365966796875000,5.9999098777771000,32.5400199890136700,16,3,48,118,62,2147635743,2147393123,2147281928,2148317078,2008,2,-4,18745
1340644068,6467,186.4900054931640600,6.0191998481750490,34.8319015502929700,341.3315124511719000,620.6209716796875000,6.0004100799560550,32.5386581420898440,15,3,50,117,62,2147636749,2147392232,2147281914,2148318486,1763,0,-4,41220
1340644129,6467,183.2799987792968800,6.0914998054504395,34.8381996154785160,340.0426025390625000,618.4935913085938000,6.0688819885253910,32.5455093383789060,16,3,50,114,62,2147633452,2147390691,2147282988,2148318687,1620,0,-4,22925
1340644193,6467,180.0399932861328000,6.0904998779296875,34.8340988159179700,339.9699096679687500,618.4365844726562000,6.0707130432128910,32.5470008850097660,16,3,48,114,63,2147634874,2147392548,2147283620,2148316264,1310,0,-4,64670
1340644255,6468,176.9600067138672000,6.0967001914978030,34.8334007263183600,340.3099060058594000,618.1246948242188000,6.0807509422302250,32.5299491882324200,16,3,48,114,63,2147636196,2147390582,2147282404,2148321440,1156,1,-4,9460
1340644319,6469,173.8000030517578000,6.1184000968933105,34.8333015441894500,340.6734924316406000,617.5277709960938000,6.0999488830566410,32.5072402954101560,16,3,50,116,64,2147631702,2147391565,2147281558,2148319706,573,0,-4,20733
1340644380,6468,170.7799987792968800,6.1305999755859375,34.8325004577636700,341.5954895019531000,617.2075195312500000,6.1102519035339355,32.4704399108886700,16,3,50,112,62,2147636104,2147392932,2147282070,2148319377,227,1,-4,12404
1340644444,6466,167.5700073242187500,6.1385002136230470,34.8310012817382800,342.6597900390625000,616.9028930664062000,6.1200489997863770,32.4290695190429700,16,3,49,116,62,2147633289,2147390907,2147281133,2148319359,3284,1,-4,23034
1340644505,6468,164.4799957275390600,6.1577000617980960,34.8311004638671900,342.7265930175781000,616.3012695312500000,6.1393928527832030,32.4161911010742200,16,3,48,114,62,2147634189,2147390120,2147283579,2148319698,2971,1,-4,6050
1340644569,6468,161.1799926757812500,6.1979999542236330,34.8311996459960940,345.8486022949219000,615.0493774414062000,6.1796360015869140,32.2901496887207000,16,3,48,111,61,2147630696,2147391730,2147281142,2148317650,2738,2,-4,19795
1340644630,6466,157.9799957275390600,6.2225999832153320,34.8325996398925800,351.0397949218750000,614.2404785156250000,6.2056288719177250,32.1046485900878900,16,3,50,112,62,2147635725,2147391098,2147283560,2148319337,2714,2,-4,42399
1340644694,6468,154.5599975585937500,6.2382998466491700,34.8333015441894500,353.7723083496094000,613.6821289062500000,6.2235698699951170,32.0055885314941400,16,3,49,110,62,2147632269,2147391103,2147285151,2148318066,2465,0,-4,23840
1340644755,6466,151.1699981689453000,6.2446999549865720,34.8324012756347660,355.3807983398437500,613.5916137695312000,6.2264800071716310,31.9519290924072270,16,3,50,111,62,2147635761,2147393718,2147285257,2148317814,2382,0,-4,40674
1340644819,6467,147.5099945068359400,6.2448000907897950,34.8292999267578100,355.3818054199219000,613.5958862304688000,6.2263388633728030,31.9522094726562500,16,3,49,115,62,2147635981,2147392072,2147286066,2148319624,2114,0,-4,8789
1340644881,6466,143.8300018310547000,6.2425999641418460,34.8270988464355500,354.6058044433594000,613.6472167968750000,6.2246928215026855,31.9780197143554700,16,3,48,112,62,2147636602,2147391940,2147287601,2148317379,1887,0,-4,41947
1340644945,6469,139.9799957275390600,6.2397999763488770,34.8233985900878900,353.4721069335937500,613.7122192382812000,6.2226028442382810,32.0160293579101560,16,3,50,116,62,2147633018,2147393540,2147287912,2148321613,1768,0,-4,46513
1340645006,6467,136.2400054931640600,6.2431998252868650,34.8180007934570300,352.4393920898437500,613.6345214843750000,6.2251009941101070,32.0482597351074200,16,3,50,112,62,2147632557,2147395122,2147290724,2148321960,1573,0,-4,29767
1340645094,6467,131.4900054931640600,6.2458000183105470,34.8143005371093750,351.4328918457031000,613.5507812500000000,6.2277889251708980,32.0799102783203100,16,3,49,114,62,2147637805,2147391007,2147293737,2148321503,1266,0,-4,28832
1340645155,6469,129.3000030517578000,6.2522001266479490,34.8117980957031250,351.2219848632812500,613.3756713867188000,6.2334160804748535,32.0838203430175800,16,3,50,113,61,2147636374,2147393489,2147297065,2148321786,995,0,-4,50740
1340645219,6468,127.2900009155273400,6.2568998336791990,34.8106002807617200,351.1029968261719000,613.2128295898438000,6.2386460304260250,32.0847511291503900,16,3,50,112,61,2147634211,2147392113,2147296012,2148321539,704,0,-4,39871
1340645280,6469,125.4400024414062500,6.2620000839233400,34.8087997436523440,351.1693115234375000,613.0681762695312000,6.2432899475097660,32.0801506042480500,16,3,50,113,62,2147637636,2147393938,2147299492,2148319551,614,0,-4,62017
1340645368,6468,122.1399993896484400,6.2666001319885250,34.8055000305175800,350.7278137207031000,612.9011840820312000,6.2486548423767090,32.0917701721191400,16,3,50,117,62,2147638093,2147394184,2147303377,2148322376,222,2,-4,42993
1340645429,6466,118.7900009155273400,6.2811999320983890,34.8030014038085940,351.0885009765625000,612.4827270507812000,6.2620978355407715,32.0726585388183600,16,3,50,114,62,2147636127,2147395300,2147311432,2148322806,3491,0,-4,49128
1340645493,6469,115.2799987792968800,6.2997999191284180,34.8002014160156250,351.5692138671875000,611.9310302734375000,6.2798118591308590,32.0475311279296900,16,3,50,115,62,2147636397,2147396228,2147315533,2148323940,3112,2,-4,27069
1340645555,6469,111.8600006103515600,6.3140997886657715,34.7966003417968750,352.1427917480469000,611.4110107421875000,6.2965068817138670,32.0199699401855500,16,3,52,115,62,2147636155,2147394129,2147320662,2148321887,2861,0,-4,60340
1340645619,6467,108.4199981689453100,6.3292999267578125,34.7925987243652340,351.6697082519531000,611.0031127929688000,6.3096032142639160,32.0282516479492200,16,3,50,118,62,2147635587,2147395432,2147327113,2148326619,2857,2,-4,8783
1340645680,6466,105.2500000000000000,6.3617000579833980,34.7885017395019500,351.2395935058594000,610.0322875976562000,6.3407568931579590,32.0256690979003900,16,3,54,119,62,2147636168,2147399203,2147332429,2148325375,2736,0,-4,21086
1340645744,6467,102.0899963378906200,6.3703999519348145,34.7863998413085940,350.8532104492187500,609.6920166015625000,6.3516812324523930,32.0325698852539060,16,3,52,119,62,2147635954,2147397257,2147338944,2148323144,2400,0,-4,33779
1340645805,6466,99.0999984741211000,6.3934001922607420,34.7831001281738300,350.7542114257812500,609.0391845703125000,6.3726220130920410,32.0247688293457000,16,3,56,120,64,2147636187,2147398865,2147343020,2148327980,2254,2,-4,7869
1340645869,6469,96.0999984741211000,6.4074997901916500,34.7815017700195300,350.8511047363281000,608.5612182617188000,6.3879590034484860,32.0134887695312500,16,3,56,118,62,2147635953,2147400178,2147348104,2148329805,2169,0,-4,25472
1340645930,6467,93.2099990844726600,6.4210000038146970,34.7781982421875000,351.2499084472656000,608.1524047851562000,6.4010682106018070,31.9933891296386720,15,3,59,119,62,2147637453,2147400849,2147356388,2148330646,2195,0,-4,59800
1340645994,6467,90.0999984741211000,6.4327998161315920,34.7756996154785160,351.2904968261719000,607.7274169921875000,6.4147009849548340,31.9848308563232420,16,3,58,117,62,2147637892,2147401900,2147365792,2148335894,1854,0,-4,17254
1340646055,6468,87.0299987792968800,6.4583997726440430,34.7728996276855500,351.5898132324219000,606.9658203125000000,6.4391188621521000,31.9621105194091800,15,3,62,118,62,2147639487,2147403107,2147384603,2148336438,1613,0,-4,2376
1340646119,6469,83.7600021362304700,6.4710001945495605,34.7719993591308600,352.4854125976562500,606.5950927734375000,6.4510021209716800,31.9263992309570300,16,3,64,128,62,2147641585,2147410221,2147416840,2148342372,1614,0,-4,63344
1340646181,6469,80.5599975585937500,6.4760999679565430,34.7714996337890600,353.0747070312500000,606.3792114257812000,6.4579219818115230,31.9037799835205080,16,3,64,129,62,2147641581,2147415729,2147461371,2148352411,1533,0,-4,10127
1340646245,6466,77.3399963378906200,6.5079998970031740,34.7695007324218750,353.2536926269531000,605.4346923828125000,6.4881949424743650,31.8819103240966800,15,3,68,129,62,2147640588,2147423496,2147501590,2148363258,1055,0,-4,24252
1340646306,6467,74.5899963378906200,6.5296001434326170,34.7682991027832000,353.8869018554687500,604.7711791992188000,6.5094528198242190,31.8501701354980470,16,3,73,131,62,2147644132,2147433846,2147548292,2148374321,626,0,-4,63714
1340646370,6468,72.1399993896484400,6.5468001365661620,34.7673988342285160,354.3434143066406000,604.2053833007812000,6.5275797843933105,31.8258495330810550,16,3,76,131,62,2147647442,2147436886,2147573260,2148379670,517,0,-4,22036
1340646431,6467,70.2300033569336000,6.5651998519897460,34.7655982971191400,354.3013916015625000,603.6262207031250000,6.5461330413818360,31.8171806335449220,15,3,78,140,62,2147648209,2147438340,2147573590,2148384758,203,0,-4,19468
1340646521,6468,67.6100006103515600,6.6454000473022460,34.7624015808105500,352.7876892089844000,600.7943725585938000,6.6367931365966800,31.8184394836425780,16,3,82,139,64,2147650340,2147436273,2147555482,2148387441,2714,0,-4,58702
1340646582,6469,65.3499984741211000,6.7368998527526855,34.7597999572753900,349.8103027343750000,598.0576171875000000,6.7243371009826660,31.8694801330566400,16,3,78,141,62,2147641640,2147431834,2147524634,2148386015,2484,0,-4,45539
1340646673,6469,61.5400009155273440,6.7659001350402830,34.7450981140136700,347.0513916015625000,596.8756713867188000,6.7621212005615230,31.9402503967285160,16,3,66,125,64,2147644809,2147423565,2147505960,2148390669,2062,1,-4,52222
1340646734,6468,58.1699981689453100,6.8362002372741700,34.7285003662109400,338.8982849121094000,594.0280151367188000,6.8531060218811035,32.1655311584472660,16,3,68,123,64,2147643661,2147422833,2147508315,2148398746,1928,2,-4,61206
1340646798,6466,54.3899993896484400,7.0409002304077150,34.7182006835937500,334.3695068359375000,588.4481811523438000,7.0311579704284670,32.2264213562011700,16,3,83,135,64,2147648086,2147433179,2147549114,2148423451,1663,0,-4,39043
1340646860,6468,50.2999992370605500,7.2495999336242680,34.6999015808105500,332.9818115234375000,582.4940185546875000,7.2208399772644040,32.1745681762695300,16,3,85,139,64,2147653700,2147443858,2147630372,2148462413,1076,2,-4,29119
1340646948,6469,44.5299987792968750,8.2699003219604500,34.7094993591308600,334.9381103515625000,552.0925292968750000,8.1844367980957030,31.6100196838378900,26,3,144,203,64,2147670856,2147478683,2147809069,2148557686,1042,1,-4,13306
1340647009,6469,41.5699996948242200,8.4680004119873050,34.7112998962402340,337.8558044433594000,544.9965209960938000,8.4082145690917970,31.3978691101074220,25,3,168,231,64,2147685321,2147513796,2147966106,2148640141,439,0,-4,13035
1340647073,6469,38.5800018310546900,8.7130002975463870,34.7131004333496100,340.2672119140625000,536.4362792968750000,8.6776218414306640,31.1817607879638670,34,3,215,240,64,2147716191,2147566998,2148196689,2148770833,719,0,-4,2846
1340647134,6471,36.2500000000000000,8.9675998687744140,34.7089996337890600,342.3577880859375000,527.7077026367188000,8.9517345428466800,30.9762306213378900,40,3,230,284,64,2147736607,2147606592,2148352717,2148857741,1195,0,-4,47210
1340647222,6470,33.4599990844726560,9.5103998184204100,34.7004013061523440,343.4436950683594000,510.8493957519531000,9.4795026779174800,30.6805896759033200,54,3,322,343,64,2147770733,2147655053,2148498518,2148955712,1224,1,-4,38584
1340647283,6471,31.4699993133544920,9.7318000793457030,34.6831016540527340,342.3290100097656000,504.0462951660156000,9.6918907165527340,30.6135292053222660,71,3,1149,539,66,2147835199,2147761896,2148845014,2149117658,424,1,-4,2088
1340647373,6471,28.5699996948242200,10.2868995666503900,34.6977996826171900,345.1478881835937500,486.0737915039062500,10.2514200210571290,30.2523193359375000,95,3,1217,659,66,2148136081,2148305915,2150341485,2149705292,625,0,-4,26340
1340647434,6472,25.9200000762939450,10.3812999725341800,34.6943016052246100,352.6590881347656000,482.5494995117187500,10.3608798980712890,29.9611892700195300,77,3,1102,548,68,2148600598,2149022825,2152068836,2150433667,3323,0,-4,63347
1340647498,6468,23.0499992370605470,11.0996999740600590,34.6999015808105500,354.0524902343750000,462.0412902832031000,10.9962902069091800,29.6188697814941400,74,3,718,468,66,2149708054,2150698248,2155988611,2152178756,575,0,-4,56576
1340647560,6470,21.0000000000000000,11.3718996047973630,34.7267990112304700,360.2217102050781000,451.0646057128906000,11.3353300094604500,29.2720508575439450,86,3,687,592,66,2151755962,2153840301,2163326633,2155514751,615,1,-6,41819
1340647650,6469,17.3899993896484380,11.9556999206542970,34.7275009155273440,360.9421997070312500,431.7745971679687500,11.9294900894165040,28.9784507751464840,84,3,505,583,64,2155798729,2158890605,2171536077,2159491953,3376,3,-3,43149
1340647711,6468,14.2600002288818360,12.2124004364013670,34.7210998535156250,359.5906982421875000,423.5515136718750000,12.1821603775024410,28.9048595428466800,91,3,493,589,62,2162925946,2167742161,2185856744,2166649786,2501,2,-5,43960
1340647775,6470,11.0200004577636720,12.7933998107910160,34.7192001342773440,354.1142883300781000,404.0866088867187500,12.7789402008056640,28.8031806945800780,94,3,499,590,62,2174028008,2180693329,2202724145,2175443542,2264,0,-3,35138
1340647837,6471,8.3299999237060550,12.9400997161865230,34.7177009582519500,350.9699096679687500,399.1108093261719000,12.9312095642089840,28.8319206237792970,96,3,461,563,61,2184347866,2190877983,2210770738,2180782788,1947,3,-6,2830
1340647892,6471,5.9800000190734860,12.9628000259399410,34.7167015075683600,350.0809020996094000,398.0397033691406000,12.9639797210693360,28.8448295593261720,98,3,400,524,61,2200961914,2207848598,2227712415,2192301513,1323,0,-3,62029
1340647939,6469,3.9100000858306885,13.0020999908447270,34.7126007080078100,349.3655090332031000,396.7012939453125000,13.0049104690551760,28.8487300872802730,100,3,338,531,59,2221899364,2228866541,2246800072,2208901238,1055,0,-6,36607
1340647987,6468,2.8199999332427980,0.0000000000000000,0.0000000000000000,349.4849853515625000,396.7344055175781000,13.0038995742797850,28.8455009460449220,100,3,311,527,63,2231071610,2237553535,2253437773,2216320200,753,3,10,5111
1340648039,6470,0.7599999904632568,0.0000000000000000,0.0000000000000000,349.5538024902344000,396.7085876464844000,13.0046901702880860,28.8430500030517580,105,3,254,526,61,2251206911,2254409370,2262243021,2236866531,3017,-14,-19,3723
